Home   Weather   Remscheid   Past weeks

Flag for Germany Past Weather in Remscheid, North Rhine-Westphalia, Germany — Yesterday and Last 2 Weeks

Now
57 °F

Sunny.


Feels Like: 54 °F
Forecast: 36 / 46 °F
Wind: 15 mph from West

Location: Duesseldorf

Current Time: Apr 24, 2017 at 5:37:31 pm

Latest Report: Apr 24, 2017 at 5:20 pm


Visibility: 10 mi

Pressure: 29.86 "Hg

Humidity: 44%

Dew Point: 36 °F

Location of RemscheidLocation

Past Weather in Remscheid — Graph

°F

Remscheid Temperature Yesterday

Maximum temperature yesterday: 52 °F (at 2:50 pm)
Minimum temperature yesterday: 37 °F (at 11:50 pm)
Average temperature yesterday: 44 °F

High & Low Weather Summary for the Past Weeks

 TemperatureHumidityPressure
High73 °F (Apr 9, 6:50 pm)100% (Apr 14, 5:50 am)30.63 "Hg (Apr 14, 5:50 am)
Low27 °F (Apr 20, 4:50 am)25% (Apr 9, 5:20 pm)29.89 "Hg (Apr 24, 3:50 pm)
Average46 °F68%30.20 "Hg
* Reported Apr 9 4:20 pm — Apr 24 4:20 pm, Remscheid, Weather by CustomWeather, © 2017

Note: Actual official high and low records may vary slightly from our data, if they occured in-between our weather recording intervals... More about our weather records

Advertising

Remscheid Weather History for the Previous 24 Hours

Scroll right to see more
 ConditionsComfort  
Time TempWeatherWind HumidityBarometerVisibility
4:20 pm
Mon, Apr 24
59 °FPassing clouds.15 mph42%29.89 "HgN/A
3:50 pm59 °FSunny.16 mph42%29.89 "Hg10 mi
3:20 pm59 °FPassing clouds.16 mph42%29.92 "HgN/A
2:50 pm57 °FPassing clouds.14 mph44%29.92 "HgN/A
2:20 pm59 °FSunny.15 mph45%29.95 "Hg10 mi
1:50 pm57 °FBroken clouds.15 mph44%29.95 "HgN/A
1:20 pm57 °FScattered clouds.16 mph48%29.98 "HgN/A
12:50 pm55 °FScattered clouds.16 mph47%29.98 "HgN/A
12:20 pm54 °FPartly sunny.14 mph51%30.01 "HgN/A
11:50 am54 °FPartly sunny.13 mph47%30.01 "HgN/A
11:20 am54 °FSunny.15 mph47%30.04 "Hg10 mi
10:50 am52 °FSunny.14 mph50%30.04 "Hg10 mi
10:20 am50 °FPassing clouds.13 mph54%30.04 "HgN/A
9:20 am46 °FSunny.12 mph62%30.07 "Hg10 mi
8:50 am45 °FPassing clouds.9 mph66%30.07 "HgN/A
8:20 am41 °FPassing clouds.8 mph76%30.07 "HgN/A
7:50 am39 °FSunny.9 mph81%30.09 "Hg10 mi
7:20 am37 °FSunny.12 mph87%30.09 "Hg10 mi
6:50 am37 °FSunny.12 mph87%30.09 "Hg10 mi
6:20 am36 °FSunny.10 mph87%30.09 "Hg10 mi
5:50 am36 °FClear.9 mph87%30.09 "Hg10 mi
5:20 am36 °FClear.9 mph87%30.12 "Hg10 mi
4:50 am36 °FClear.8 mph87%30.12 "Hg10 mi
4:20 am37 °FClear.6 mph81%30.15 "Hg10 mi
3:50 am36 °FClear.7 mph87%30.15 "Hg10 mi
3:20 am36 °FClear.7 mph87%30.15 "Hg10 mi
2:50 am36 °FClear.6 mph93%30.15 "Hg10 mi
2:20 am36 °FClear.1 mph93%30.18 "Hg10 mi
1:50 am36 °FClear.2 mph93%30.18 "Hg10 mi
1:20 am37 °FClear.2 mph87%30.21 "Hg10 mi
12:50 am36 °FPassing clouds.3 mph93%30.21 "HgN/A
12:20 am37 °FClear.2 mph93%30.21 "Hg10 mi
11:50 pm
Sun, Apr 23
37 °FClear.2 mph93%30.21 "Hg10 mi
11:20 pm39 °FPassing clouds.1 mph87%30.24 "HgN/A
10:50 pm41 °FPassing clouds.1 mph81%30.24 "HgN/A
10:20 pm43 °FPassing clouds.1 mph81%30.24 "HgN/A
9:50 pm45 °FPassing clouds.1 mph81%30.24 "HgN/A
9:20 pm46 °FPassing clouds.2 mph71%30.24 "HgN/A
8:50 pm46 °FPassing clouds.3 mph66%30.24 "HgN/A
8:20 pm46 °FPartly sunny.5 mph66%30.24 "HgN/A
7:50 pm46 °FPartly sunny.6 mph66%30.24 "HgN/A
7:20 pm48 °FPartly sunny.5 mph62%30.24 "HgN/A
6:50 pm48 °FBroken clouds.6 mph62%30.24 "HgN/A
6:20 pm48 °FSprinkles. Partly sunny.9 mph62%30.24 "HgN/A
5:50 pm50 °FScattered showers. Broken clouds.7 mph54%30.24 "HgN/A
5:20 pm52 °FScattered showers. Scattered clouds.9 mph50%30.27 "HgN/A
Weather by CustomWeather, © 2017

See weather overviewHow to use our weather pages